Starlink 32279

operational
NORAD ID: 61003 Int'l Des: 2024-158 Owner: SPXS Country: US Constellation: starlink
LEOCIRCULAR

关于 Starlink 32279

正在加载描述...

实时位置

正在加载3D地球...

即将过境

高度历史

Altitude vs Time

uPlot chart will show altitude changes over time

两行轨道根数

1 61003U 24158P 26036.77081989 .00003136 00000-0 11797-3 0 9997
2 61003 53.1588 213.8381 0001005 67.0952 293.0155 15.30201147 80763
Epoch: Feb 5, 2026 • Age: 7 hours

当前状态

高度 479.2 km
速度 7.63 km/s
星下点 43.83°N, 168.74°W
发射日期 Sep 5, 2024
运行时间 1.4 years
类型 internet

技术详情

分类 Payload
质量 730.00 kg
干质量 700.00 kg
总质量 730.00 kg
长度 0.30 m
直径 4.10 m
跨度 29.00 m
形状 Box + pan
制造商 SPXS
平台类型 Starlink V2M
阶段状态 In Orbit
所有者/国家 SPXS/US

大型星座

Loading constellations...